TimeEDT,TemperatureF,Dew PointF,Humidity,Sea Level PressureIn,VisibilityMPH,Wind Direction,Wind SpeedMPH,Gust SpeedMPH,PrecipitationIn,Events,Conditions,WindDirDegrees,DateUTC
12:53 AM,75.9,73.0,91,29.73,9.0,SSE,3.5,-,N/A,,Clear,160,2012-10-02 04:53:00
2:53 AM,75.9,73.0,91,29.74,10.0,South,10.4,-,N/A,,Clear,170,2012-10-02 06:53:00
3:53 AM,75.0,73.0,94,29.74,10.0,SSE,6.9,-,N/A,,Partly Cloudy,160,2012-10-02 07:53:00
4:15 AM,75.2,73.4,94,29.75,10.0,South,5.8,-,N/A,,Mostly Cloudy,170,2012-10-02 08:15:00
4:53 AM,75.9,73.0,91,29.75,10.0,South,6.9,-,N/A,,Overcast,180,2012-10-02 08:53:00
5:04 AM,75.2,73.4,94,29.76,10.0,South,4.6,-,N/A,,Overcast,180,2012-10-02 09:04:00
5:53 AM,75.9,73.0,91,29.76,9.0,South,6.9,-,N/A,,Overcast,170,2012-10-02 09:53:00
6:44 AM,75.2,73.4,94,29.77,9.0,SSE,5.8,-,N/A,,Overcast,160,2012-10-02 10:44:00
6:53 AM,75.9,73.9,94,29.78,4.0,WSW,9.2,-,0.03,Rain,Light Rain,250,2012-10-02 10:53:00
6:57 AM,75.2,73.4,94,29.79,1.8,WSW,10.4,-,0.03,Rain,Heavy Rain,250,2012-10-02 10:57:00
7:03 AM,75.2,73.4,94,29.79,2.0,SW,9.2,-,0.04,Rain,Rain,220,2012-10-02 11:03:00
7:08 AM,75.2,73.4,94,29.79,4.0,SW,9.2,-,0.05,Rain,Light Rain,230,2012-10-02 11:08:00
7:16 AM,75.2,71.6,89,29.80,5.0,SW,5.8,-,0.05,Rain,Light Rain,230,2012-10-02 11:16:00
7:33 AM,73.4,71.6,94,29.81,10.0,West,9.2,-,0.05,,Overcast,260,2012-10-02 11:33:00
7:53 AM,73.0,70.0,90,29.81,8.0,WNW,6.9,-,0.05,,Overcast,290,2012-10-02 11:53:00
8:04 AM,73.4,69.8,88,29.82,10.0,West,3.5,-,N/A,,Overcast,270,2012-10-02 12:04:00
8:11 AM,73.4,69.8,88,29.82,10.0,Calm,Calm,-,N/A,,Overcast,0,2012-10-02 12:11:00
8:53 AM,73.9,70.0,87,29.83,10.0,Calm,Calm,-,N/A,,Overcast,0,2012-10-02 12:53:00
9:53 AM,75.0,71.1,87,29.85,10.0,SE,3.5,-,0.00,,Overcast,140,2012-10-02 13:53:00
10:53 AM,79.0,70.0,74,29.86,10.0,Variable,6.9,-,N/A,,Clear,0,2012-10-02 14:53:00
11:53 AM,82.0,69.1,65,29.86,10.0,SW,6.9,-,N/A,,Clear,230,2012-10-02 15:53:00
12:53 PM,81.0,69.1,67,29.87,10.0,SW,6.9,-,N/A,,Overcast,230,2012-10-02 16:53:00
2:53 PM,82.9,69.1,63,29.85,10.0,South,6.9,-,N/A,,Overcast,180,2012-10-02 18:53:00
3:53 PM,84.9,69.1,59,29.84,10.0,SSW,10.4,-,N/A,,Scattered Clouds,210,2012-10-02 19:53:00
4:53 PM,87.1,69.1,55,29.84,10.0,South,6.9,-,N/A,,Partly Cloudy,190,2012-10-02 20:53:00
5:53 PM,84.9,68.0,57,29.85,10.0,SSW,9.2,-,N/A,,Scattered Clouds,210,2012-10-02 21:53:00
6:53 PM,82.0,66.9,60,29.87,10.0,SSW,4.6,-,N/A,,Scattered Clouds,210,2012-10-02 22:53:00
7:53 PM,79.0,66.9,66,29.90,10.0,Calm,Calm,-,N/A,,Clear,0,2012-10-02 23:53:00
8:53 PM,77.0,66.0,69,29.93,10.0,South,3.5,-,N/A,,Clear,190,2012-10-03 00:53:00
10:53 PM,75.0,64.9,71,29.98,10.0,SSW,3.5,-,N/A,,Clear,210,2012-10-03 02:53:00
11:53 PM,73.9,64.9,73,30.00,10.0,SSW,3.5,-,N/A,,Clear,200,2012-10-03 03:53:00